Ketchikan, AK

10:32 PM AKDT on September 22, 2018 (GMT -0800)
Ketchikan International

Weather History for PAKT - September, 2017

Change the Weather History Date:

Tuesday, September 5, 2017

  Actual Average Record
Temperature  
Mean Temperature 66 °F -  
Max Temperature 80 °F 60 °F 80 °F (2017)
Min Temperature 53 °F 48 °F 37 °F (1998)
Growing Degree Days 16 (Base 50)    
Moisture  
Dew Point 56 °F    
Average Humidity 75    
Maximum Humidity 100    
Minimum Humidity 47    
Precipitation  
Precipitation 0.00 in - - ()
Sea Level Pressure  
Sea Level Pressure 29.93 in    
Wind  
Wind Speed 4 mph (SSW)    
Max Wind Speed 15 mph    
Max Gust Speed -    
Visibility 10 miles    
Events      
Averages and records for this station are not official NWS values.
T = Trace of Precipitation, MM = Missing Value Source: NWS Daily Summary

Daily Weather History Graph

Daily Weather History Graph

Search for Another Location

Airport or City:

Astronomy

Sep. 05, 2017 Rise Set
Actual Time 6:00 AM AKDT 7:28 PM AKDT
Civil Twilight 5:22 AM AKDT 8:06 PM AKDT
Nautical Twilight 4:35 AM AKDT 8:53 PM AKDT
Astronomical Twilight 3:42 AM AKDT 9:45 PM AKDT
Moon 7:32 PM AKDT (9/5) 5:07 AM AKDT (9/5)
Length of Visible Light 14h 43m
Length of Day
13h 27m
Full, 100% of the Moon is Illuminated
Sep 5
Full
Sep 5
Full
Sep 12
Last Quarter
Sep 19
New
Sep 27
First Quarter

Hourly Weather History & Observations

Time (AKDT) Temp. Dew Point Humidity Pressure Visibility Wind Dir Wind Speed Gust Speed Precip Events Conditions
12:53 AM 55.0 °F 54.0 °F 96% 30.01 in 10.0 mi Calm Calm - N/A   Clear
1:53 AM 55.0 °F 53.1 °F 93% 30.01 in 10.0 mi WNW 3.5 mph - N/A   Clear
2:53 AM 57.0 °F 55.9 °F 96% 29.99 in 10.0 mi NW 3.5 mph - N/A   Clear
3:53 AM 57.9 °F 57.0 °F 97% 29.98 in 10.0 mi WNW 4.6 mph - N/A   Clear
4:53 AM 53.1 °F 53.1 °F 100% 29.97 in 10.0 mi Calm Calm - N/A   Clear
5:53 AM 55.0 °F 54.0 °F 96% 29.95 in 10.0 mi NW 3.5 mph - N/A   Clear
6:53 AM 57.0 °F 55.9 °F 96% 29.95 in 10.0 mi WNW 4.6 mph - N/A   Clear
7:53 AM 60.1 °F 57.0 °F 90% 29.94 in 10.0 mi NW 6.9 mph - N/A   Clear
8:53 AM 62.6 °F 57.2 °F 82% 29.94 in 10.0 mi NW 6.9 mph - N/A   Clear
9:53 AM 64.4 °F 57.2 °F 77% 29.92 in 10.0 mi Variable 4.6 mph - N/A   Clear
10:53 AM 68.0 °F 57.2 °F 68% 29.91 in 10.0 mi Calm Calm - N/A   Clear
11:53 AM 69.8 °F 57.2 °F 64% 29.91 in 10.0 mi NNW 10.4 mph - N/A   Clear
12:53 PM 71.6 °F 57.2 °F 60% 29.91 in 10.0 mi NNW 5.8 mph - N/A   Clear
1:53 PM 73.4 °F 57.2 °F 57% 29.91 in 10.0 mi Variable 3.5 mph - N/A   Clear
2:53 PM 78.8 °F 57.2 °F 47% 29.90 in 10.0 mi ESE 9.2 mph - N/A   Clear
3:53 PM 77.0 °F 55.4 °F 47% 29.90 in 10.0 mi SE 15.0 mph - N/A   Clear
4:53 PM 75.2 °F 55.4 °F 50% 29.89 in 10.0 mi SSE 9.2 mph - N/A   Clear
5:53 PM 73.4 °F 55.4 °F 53% 29.89 in 10.0 mi SSE 8.1 mph - N/A   Clear
6:53 PM 71.6 °F 55.4 °F 57% 29.89 in 10.0 mi South 5.8 mph - N/A   Clear
7:53 PM 68.0 °F 55.4 °F 64% 29.90 in 10.0 mi South 6.9 mph - N/A   Clear
8:53 PM 66.0 °F 55.0 °F 68% 29.92 in 10.0 mi SSE 9.2 mph - N/A   Clear
9:53 PM 64.0 °F 55.9 °F 75% 29.92 in 10.0 mi SE 8.1 mph - N/A   Clear
10:53 PM 61.0 °F 55.9 °F 83% 29.93 in 10.0 mi SE 5.8 mph - N/A   Clear
11:53 PM 62.1 °F 55.9 °F 80% 29.94 in 10.0 mi ESE 6.9 mph - N/A   Clear